This is the latest recevied weather packets stored in our database for station/object K0PFX-8. If no packets are shown the sender has not sent any weather packets the latest 10 day(s).
| Time | Temp. | Humidity | Pressure | Rain* | Wind** | Luminosity | Snow |
|---|---|---|---|---|---|---|---|
| 1778033068 | 8.33° C | 100% | 1012.1 hPa | 2.03 mm | 0 m/s | - | - |
| 1778032170 | 8.33° C | 100% | 1012.3 hPa | 2.03 mm | 0 m/s | - | - |
| 1778031268 | 8.33° C | 100% | 1011.1 hPa | 1.02 mm | 0 m/s | - | - |
| 1778030370 | 7.78° C | 100% | 1012 hPa | 1.02 mm | 0 m/s | - | - |
| 1778029468 | 7.78° C | 100% | 1011.4 hPa | 1.02 mm | 0 m/s | - | - |
| 1778028569 | 8.33° C | 100% | 1011.1 hPa | 1.02 mm | 0.89 m/s, 37° | - | - |
| 1778027668 | 7.78° C | 100% | 1011.5 hPa | 2.03 mm | 0 m/s | - | - |
| 1778026769 | 7.78° C | 100% | 1011.1 hPa | 2.03 mm | 0.89 m/s, 31° | - | - |
| 1778025868 | 7.78° C | 100% | 1010.9 hPa | 2.03 mm | 0.45 m/s, 23° | - | - |
| 1778024969 | 8.33° C | 100% | 1010.8 hPa | 2.03 mm | 0 m/s | - | - |
| 1778023169 | 8.89° C | 100% | 1010.9 hPa | 0 mm | 0.89 m/s, 304° | - | - |
| 1778022268 | 8.89° C | 100% | 1010.7 hPa | 0 mm | 0 m/s | - | - |
| 1778021369 | 8.89° C | 100% | 1010.2 hPa | 0 mm | 2.68 m/s, 359° | - | - |
| 1778020467 | 8.89° C | 100% | 1009.9 hPa | 0.25 mm | 2.68 m/s, 10° | - | - |
| 1778019569 | 8.89° C | 100% | 1010.1 hPa | 0.25 mm | 3.13 m/s, 4° | - | - |
| 1778018667 | 8.89° C | 100% | 1010.1 hPa | 0.25 mm | 1.79 m/s, 15° | - | - |
| 1778017769 | 8.89° C | 100% | 1010.2 hPa | 0.25 mm | 0.45 m/s, 252° | - | - |
| 1778016867 | 8.89° C | 100% | 1010.5 hPa | 1.02 mm | 0.89 m/s, 328° | - | - |
| 1778015968 | 8.89° C | 100% | 1010.3 hPa | 1.02 mm | 0.89 m/s, 263° | - | - |
| 1778015067 | 8.89° C | 100% | 1011 hPa | 1.02 mm | 0 m/s | - | - |
| 1778014168 | 8.89° C | 100% | 1010.7 hPa | 1.02 mm | 1.34 m/s, 353° | - | - |
| 1778013266 | 8.89° C | 100% | 1011 hPa | 0.25 mm | 0.89 m/s, 84° | - | - |
| 1778012367 | 8.89° C | 100% | 1011 hPa | 0.25 mm | 0.89 m/s, 349° | - | - |
| 1778011466 | 8.89° C | 100% | 1011.2 hPa | 0.25 mm | 3.13 m/s, 277° | - | - |
| 1778010567 | 9.44° C | 100% | 1011.2 hPa | 0.25 mm | 0.89 m/s, 49° | - | - |
* Rain latest hour (hover to see other rain measurements)
** Current wind speed in m/s (hover to see current wind gust speed)